User: anonymous   Login
Location: Haliburton Scout Reserve
(45.0900°N, 78.3200°W)
Time: 14:35:26
(UTC-04:00)
Language:

NOAA 18 - Orbit

View from above orbital plane
View from above orbital plane
View from above satellite
View from above satellite

Ground track
Ground track

The orbit data is extracted from the following two-line orbital elements,

1 28654U 05018A   22137.32699557  .00000223  00000-0  14426-3 0  9997
2 28654  98.9500 207.7860 0015165  62.5499 297.7213 14.12728463875673
Epoch (UTC): 17 May 2022 07:50:52
Eccentricity: 0.0015165
inclination: 98.9500°
perigee height: 839 km
apogee height: 861 km
right ascension of ascending node: 207.7860°
argument of perigee: 62.5499°
revolutions per day: 14.12728463
mean anomaly at epoch: 297.7213°
orbit number at epoch: 87567

The dashed part of the orbit path shows where the satellite is in the earth's shadow,  

DLR